TimeMST,TemperatureF,Dew PointF,Humidity,Sea Level PressureIn,VisibilityMPH,Wind Direction,Wind SpeedMPH,Gust SpeedMPH,PrecipitationIn,Events,Conditions,WindDirDegrees,DateUTC
12:15 AM,23.2,18.1,81,30.31,10.0,SSE,4.6,-,N/A,,Clear,150,2012-11-17 07:15:00
12:35 AM,24.3,18.3,78,30.31,10.0,SE,4.6,-,N/A,,Clear,140,2012-11-17 07:35:00
12:55 AM,21.9,17.6,83,30.31,10.0,South,3.5,-,N/A,,Clear,190,2012-11-17 07:55:00
1:15 AM,21.9,17.2,82,30.31,10.0,Calm,Calm,-,N/A,,Clear,0,2012-11-17 08:15:00
1:35 AM,22.1,18.0,84,30.31,10.0,SW,4.6,-,N/A,,Clear,220,2012-11-17 08:35:00
1:55 AM,22.1,17.2,82,30.31,10.0,SSW,4.6,-,N/A,,Clear,200,2012-11-17 08:55:00
2:15 AM,22.5,17.4,81,30.31,10.0,Calm,Calm,-,N/A,,Clear,0,2012-11-17 09:15:00
2:55 AM,21.4,16.5,82,30.30,10.0,Calm,Calm,-,N/A,,Clear,0,2012-11-17 09:55:00
3:15 AM,21.6,17.1,83,30.30,10.0,WSW,3.5,-,N/A,,Clear,250,2012-11-17 10:15:00
3:35 AM,22.3,17.2,81,30.29,10.0,SSE,3.5,-,N/A,,Clear,150,2012-11-17 10:35:00
3:55 AM,21.2,16.5,82,30.29,10.0,Calm,Calm,-,N/A,,Clear,0,2012-11-17 10:55:00
4:15 AM,23.4,17.1,77,30.29,10.0,Calm,Calm,-,N/A,,Clear,0,2012-11-17 11:15:00
4:35 AM,24.3,17.2,75,30.29,10.0,WSW,3.5,-,N/A,,Clear,250,2012-11-17 11:35:00
4:55 AM,23.5,17.1,76,30.29,10.0,South,5.8,-,N/A,,Clear,170,2012-11-17 11:55:00
5:15 AM,32.4,17.8,55,30.28,10.0,South,4.6,-,N/A,,Clear,190,2012-11-17 12:15:00
5:35 AM,26.1,17.8,71,30.29,10.0,ESE,3.5,-,N/A,,Clear,110,2012-11-17 12:35:00
5:55 AM,28.6,18.0,64,30.29,10.0,SSE,4.6,-,N/A,,Clear,150,2012-11-17 12:55:00
6:15 AM,29.3,18.1,63,30.29,10.0,SSE,6.9,-,N/A,,Clear,160,2012-11-17 13:15:00
6:35 AM,32.0,18.5,58,30.30,10.0,SE,8.1,-,N/A,,Clear,130,2012-11-17 13:35:00
6:55 AM,30.7,19.2,62,30.31,10.0,SSE,5.8,-,N/A,,Clear,150,2012-11-17 13:55:00
7:15 AM,32.4,19.9,60,30.31,10.0,SE,5.8,-,N/A,,Clear,130,2012-11-17 14:15:00
7:35 AM,34.9,19.8,54,30.31,10.0,SE,6.9,-,N/A,,Clear,140,2012-11-17 14:35:00
7:55 AM,38.3,20.3,48,30.31,10.0,ESE,9.2,-,N/A,,Clear,120,2012-11-17 14:55:00
8:15 AM,40.1,20.5,45,30.31,10.0,South,8.1,16.1,N/A,,Clear,190,2012-11-17 15:15:00
8:35 AM,41.9,21.2,44,30.32,10.0,Calm,Calm,-,N/A,,Clear,0,2012-11-17 15:35:00
8:55 AM,43.5,21.9,42,30.32,10.0,WSW,12.7,19.6,N/A,,Clear,240,2012-11-17 15:55:00
9:15 AM,44.6,21.6,40,30.33,10.0,SW,8.1,-,N/A,,Clear,230,2012-11-17 16:15:00
9:35 AM,44.8,21.9,40,30.33,10.0,WSW,11.5,19.6,N/A,,Clear,250,2012-11-17 16:35:00
10:55 AM,48.0,25.0,41,30.33,10.0,WSW,16.1,20.7,N/A,,Clear,240,2012-11-17 17:55:00
11:15 AM,48.0,25.0,41,30.31,10.0,WSW,13.8,24.2,N/A,,Clear,240,2012-11-17 18:15:00
11:35 AM,48.2,25.5,41,30.31,10.0,West,15.0,18.4,N/A,,Clear,260,2012-11-17 18:35:00
11:55 AM,48.7,26.8,43,30.30,10.0,SW,8.1,11.5,N/A,,Clear,220,2012-11-17 18:55:00
12:15 PM,49.1,24.8,39,30.28,10.0,SW,13.8,18.4,N/A,,Clear,220,2012-11-17 19:15:00
12:35 PM,49.8,24.8,38,30.27,10.0,West,4.6,-,N/A,,Clear,270,2012-11-17 19:35:00
12:55 PM,49.6,22.5,34,30.27,10.0,WSW,10.4,17.3,N/A,,Clear,250,2012-11-17 19:55:00
1:15 PM,50.5,21.9,33,30.27,10.0,SW,16.1,-,N/A,,Clear,220,2012-11-17 20:15:00
1:35 PM,50.2,21.2,32,30.26,10.0,SW,15.0,23.0,N/A,,Clear,230,2012-11-17 20:35:00
1:55 PM,50.4,18.7,29,30.26,10.0,SW,16.1,-,N/A,,Clear,230,2012-11-17 20:55:00
2:15 PM,50.5,19.2,29,30.25,10.0,SSW,16.1,-,N/A,,Clear,210,2012-11-17 21:15:00
2:35 PM,50.9,17.8,27,30.25,10.0,SW,9.2,-,N/A,,Clear,220,2012-11-17 21:35:00
2:55 PM,51.1,17.8,27,30.25,10.0,SW,11.5,-,N/A,,Clear,220,2012-11-17 21:55:00
3:15 PM,50.5,16.9,26,30.24,10.0,SW,12.7,-,N/A,,Clear,220,2012-11-17 22:15:00
3:35 PM,48.4,17.2,29,30.24,10.0,SW,12.7,-,N/A,,Clear,220,2012-11-17 22:35:00
3:55 PM,46.9,18.3,32,30.24,10.0,SW,8.1,-,N/A,,Clear,230,2012-11-17 22:55:00
4:15 PM,44.8,20.1,37,30.24,10.0,Calm,Calm,-,N/A,,Clear,0,2012-11-17 23:15:00
4:35 PM,40.3,20.1,45,30.24,10.0,Calm,Calm,-,N/A,,Clear,0,2012-11-17 23:35:00
4:55 PM,40.8,20.3,44,30.23,10.0,Calm,Calm,-,N/A,,Clear,0,2012-11-17 23:55:00
5:15 PM,34.5,22.5,61,30.24,10.0,SSE,5.8,-,N/A,,Clear,150,2012-11-18 00:15:00
5:35 PM,35.4,21.9,58,30.24,10.0,East,3.5,-,N/A,,Clear,90,2012-11-18 00:35:00
5:55 PM,35.1,22.3,60,30.25,10.0,Calm,Calm,-,N/A,,Clear,0,2012-11-18 00:55:00
6:15 PM,35.1,22.5,60,30.25,10.0,Calm,Calm,-,N/A,,Clear,0,2012-11-18 01:15:00
6:35 PM,35.8,22.6,59,30.25,10.0,SE,3.5,-,N/A,,Clear,130,2012-11-18 01:35:00
6:55 PM,32.7,22.6,66,30.25,10.0,Calm,Calm,-,N/A,,Clear,0,2012-11-18 01:55:00
7:15 PM,30.2,22.6,73,30.25,10.0,SSE,5.8,-,N/A,,Clear,150,2012-11-18 02:15:00
7:35 PM,30.6,23.0,74,30.25,10.0,SSE,4.6,-,N/A,,Clear,150,2012-11-18 02:35:00
7:55 PM,28.8,22.3,77,30.25,10.0,Calm,Calm,-,N/A,,Clear,0,2012-11-18 02:55:00
8:15 PM,29.8,23.0,76,30.25,10.0,Calm,Calm,-,N/A,,Clear,0,2012-11-18 03:15:00
8:35 PM,28.4,22.5,78,30.25,10.0,Calm,Calm,-,N/A,,Clear,0,2012-11-18 03:35:00
8:55 PM,27.5,22.1,80,30.24,10.0,ESE,3.5,-,N/A,,Clear,120,2012-11-18 03:55:00
9:15 PM,28.8,22.6,78,30.24,10.0,Calm,Calm,-,N/A,,Clear,0,2012-11-18 04:15:00
9:35 PM,29.7,22.1,73,30.25,10.0,WSW,3.5,-,N/A,,Clear,250,2012-11-18 04:35:00
9:55 PM,30.2,21.9,71,30.25,10.0,East,3.5,-,N/A,,Clear,100,2012-11-18 04:55:00
10:15 PM,29.7,21.2,71,30.25,10.0,Calm,Calm,-,N/A,,Clear,0,2012-11-18 05:15:00
10:35 PM,27.5,21.2,77,30.24,10.0,Calm,Calm,-,N/A,,Clear,0,2012-11-18 05:35:00
10:55 PM,25.3,20.5,82,30.24,10.0,Calm,Calm,-,N/A,,Clear,0,2012-11-18 05:55:00
11:15 PM,27.5,21.6,78,30.23,10.0,SE,5.8,-,N/A,,Clear,140,2012-11-18 06:15:00
11:35 PM,26.1,21.0,81,30.24,10.0,Calm,Calm,-,N/A,,Clear,0,2012-11-18 06:35:00
11:55 PM,26.4,21.7,82,30.23,10.0,Calm,Calm,-,N/A,,Clear,0,2012-11-18 06:55:00